Probability
0 0 0 0 0 0 0 0 0 0 0 0 0 0 0 1 1 0 4 23 42 34 14 6 5 3 1 0 0 0 0 0 0 0 0 0 0 0 0 0 0 0 0 0 0 0 0 0 0
0 0 0 0 0 0 0 0 0 0 0 0 0 0 1 2 2 1 5 21 32 24 8 2 2 1 0 0 0 0 0 0 0 0 0 0 0 0 0 0 0 0 0 0 0 0 0 0 0
0 0 0 0 0 0 0 0 0 0 0 0 0 0 1 2 2 1 4 17 24 16 6 2 1 0 0 0 0 0 0 0 0 0 0 0 0 0 0 0 0 0 0 0 0 0 0 0 0
0 0 0 0 0 0 0 0 0 0 0 0 1 2 2 1 1 0 4 14 22 18 12 8 6 3 1 0 0 0 0 0 1 1 1 1 1 0 0 0 0 0 0 0 0 0 0 0 0
0 0 0 0 0 0 0 0 0 0 0 0 4 7 4 1 0 0 3 10 18 24 22 15 12 8 3 0 0 0 0 1 2 3 3 2 1 1 0 0 0 0 0 0 0 0 0 0 0
0 0 0 0 0 0 0 0 0 0 0 0 6 10 7 1 0 0 1 5 18 33 31 20 14 11 4 1 0 0 0 1 3 5 4 3 1 1 2 1 0 0 1 2 2 3 4 4 4
0 0 0 0 0 0 0 0 0 0 1 2 7 12 9 2 0 0 0 4 22 41 36 18 10 7 4 3 2 2 3 4 6 7 6 4 4 4 4 5 6 8 12 14 14 16 19 22 22
0 0 0 0 0 0 0 0 1 3 7 11 18 23 17 6 1 0 0 5 24 41 33 16 10 9 7 8 10 10 10 11 13 13 12 10 10 12 13 16 23 33 39 39 38 39 45 50 51
0 0 0 0 0 0 0 1 3 9 17 25 32 36 26 12 5 5 5 8 19 32 29 22 25 24 17 19 27 25 22 25 25 24 27 27 22 21 26 34 50 63 67 66 65 65 69 70 70
0 0 0 0 0 0 0 3 8 18 30 39 42 41 32 22 18 19 19 17 20 29 35 39 46 46 36 37 47 43 38 45 45 44 51 54 44 33 35 54 72 81 83 84 85 84 83 78 73
0 0 0 0 0 0 0 5 17 31 44 51 53 50 45 43 45 47 45 42 41 47 54 59 63 64 59 59 62 58 55 61 64 64 70 73 68 55 51 67 84 90 92 93 93 93 89 81 72
0 0 0 0 0 0 0 8 26 41 49 57 65 68 68 71 76 78 77 75 74 75 76 75 75 74 73 71 68 66 64 64 68 73 77 79 79 74 71 76 85 90 93 93 93 93 90 80 71
0 0 0 0 0 0 1 11 25 36 41 52 66 76 82 87 91 94 95 95 92 89 87 83 78 74 74 72 69 66 64 61 64 70 74 77 77 75 75 76 78 79 81 82 81 81 80 75 70
0 0 0 0 0 0 4 13 23 26 28 38 52 65 75 82 85 87 90 90 88 84 82 77 69 65 67 71 70 65 61 62 64 67 69 68 67 66 67 69 68 65 63 61 59 57 57 61 63
0 0 0 0 0 1 7 18 23 20 17 23 32 43 53 60 64 67 70 71 71 71 71 63 54 53 59 64 65 60 58 61 66 67 64 61 59 58 58 57 57 53 47 42 37 33 33 40 46
0 0 0 0 0 0 8 20 23 15 12 13 18 23 29 34 38 41 44 48 51 54 56 51 44 44 47 48 47 46 48 54 60 63 60 56 52 48 45 43 43 40 37 32 25 20 19 25 29
0 0 0 0 0 1 10 21 21 14 11 11 10 10 12 15 18 20 22 26 29 33 38 38 37 37 35 29 26 27 30 37 47 54 53 47 41 37 32 31 29 28 27 24 17 14 14 16 19
0 0 0 0 0 3 14 23 20 12 10 8 6 4 5 6 7 7 8 9 12 16 22 25 28 31 29 21 15 14 15 18 28 39 41 36 31 29 27 24 21 20 19 15 10 10 10 10 9
0 0 1 1 1 5 14 19 15 9 6 4 3 1 2 2 2 1 2 3 5 8 11 16 21 25 25 20 12 9 9 9 14 23 27 24 22 23 24 23 20 19 17 13 9 7 5 4 4
0 0 1 2 1 3 9 12 10 6 3 2 1 0 0 1 0 0 1 2 4 6 8 12 17 21 21 17 11 6 7 5 6 12 15 12 11 13 17 20 20 20 20 18 13 9 4 3 4
0 0 1 1 1 1 3 6 6 4 2 1 0 1 1 0 0 0 1 1 2 6 9 13 18 18 16 12 6 4 4 3 2 5 7 5 3 5 8 11 15 18 19 20 17 13 8 6 6
0 0 0 0 0 0 0 3 5 3 1 1 2 2 2 1 0 0 0 0 2 4 7 14 18 18 13 8 4 2 1 0 0 1 2 1 0 1 2 5 9 11 13 15 15 14 13 9 7
0 0 0 0 0 0 0 2 3 3 4 5 4 3 2 1 0 0 0 1 2 3 5 11 16 15 11 8 6 3 1 0 0 0 0 0 0 0 0 1 3 5 7 9 10 11 12 11 9
0 0 0 0 0 0 0 1 2 4 6 7 4 2 1 0 0 0 0 0 1 1 2 6 9 9 7 6 5 3 1 0 0 0 0 0 0 0 0 0 0 1 3 4 6 7 8 9 11
0 0 0 0 1 0 0 1 3 4 6 6 3 1 0 0 0 0 0 0 0 1 1 2 3 3 2 2 2 1 1 0 0 0 0 0 0 0 0 0 0 0 0 1 2 4 5 6 7
0 0 0 0 0 0 1 4 5 3 3 3 2 1 0 0 0 0 0 0 0 0 0 0 0 0 0 0 0 0 0 0 0 0 0 0 0 0 0 0 0 0 0 0 0 1 2 2 2
0 0 0 0 0 0 2 6 4 1 1 1 1 0 0 0 0 0 0 0 0 0 0 0 0 0 0 0 0 0 0 0 0 0 0 0 0 0 0 0 0 0 0 0 0 0 1 1 1
0 0 0 0 0 0 1 3 3 1 0 0 0 0 0 0 0 0 0 0 0 0 0 0 0 0 0 0 0 0 0 0 0 0 0 0 0 0 1 0 0 0 0 0 1 0 0 1 2
0 0 0 0 0 0 0 0 1 0 0 0 0 0 0 0 0 0 0 0 0 0 0 0 0 0 0 0 0 0 0 0 0 0 0 0 0 0 0 0 0 0 0 0 0 0 0 1 1
0 0 0 0 0 0 0 0 0 0 0 0 0 0 0 0 0 0 0 0 0 0 0 0 0 0 0 0 0 0 0 0 0 0 0 0 0 0 0 0 0 0 0 0 0 0 0 0 0
Wind_Speed
12 13 11 9 7 5 6 6 10 10 11 10 8 8 17 17 13 10 10 18 23 20 18 17 15 14 13 12 11 11 11 11 12 11 11 11 10 10 9 9 8 8 8 8 8 8 8 8 8
12 14 11 7 7 4 1 7 9 8 7 4 6 11 18 17 13 12 13 17 22 19 17 15 16 15 13 12 11 10 10 11 11 11 11 11 10 10 9 9 8 8 7 8 8 9 9 8 8
13 15 8 8 10 2 4 8 7 5 6 4 9 14 13 12 12 11 13 18 20 18 16 17 17 15 14 12 11 10 10 10 10 11 11 10 10 10 9 9 9 8 8 8 8 8 9 9 8
9 10 8 10 12 2 6 7 5 5 6 4 9 13 11 9 10 13 14 18 19 17 17 16 16 15 13 12 11 10 9 9 10 10 10 10 10 10 9 9 9 9 9 9 8 8 9 9 9
11 8 12 14 10 2 6 4 2 4 4 7 14 16 13 12 14 14 14 18 17 17 17 16 15 14 13 12 11 10 9 9 9 9 9 9 9 9 9 10 10 9 9 9 9 9 10 10 10
9 10 13 12 4 1 5 5 4 6 8 9 12 16 12 12 12 12 13 14 17 18 17 15 15 13 12 11 10 10 9 9 8 8 8 8 9 9 9 10 10 10 10 10 10 10 10 11 11
11 13 16 18 9 1 4 5 6 8 9 8 7 13 11 11 11 11 11 11 15 19 17 13 13 12 11 11 10 9 9 8 8 8 9 9 9 10 10 10 11 11 12 11 11 12 12 12 12
12 13 18 18 13 0 6 5 8 7 7 8 10 9 11 11 11 11 10 10 12 16 16 13 13 11 10 10 11 10 10 9 9 9 10 10 11 11 12 11 12 13 13 13 13 13 13 13 13
15 13 16 16 8 4 6 6 6 6 12 16 15 12 13 11 11 10 9 10 9 11 11 10 12 10 9 10 12 12 11 11 10 10 12 11 9 10 11 15 15 16 15 15 14 14 14 13 13
13 13 18 12 7 6 6 5 5 3 13 13 11 10 10 9 8 8 9 9 8 7 8 6 7 6 3 2 7 7 7 8 9 8 9 8 7 7 10 14 19 19 18 17 16 15 14 12 9
15 17 18 14 7 5 6 2 8 8 13 11 8 5 7 9 6 7 7 7 8 8 8 8 7 7 6 4 2 1 2 3 7 7 5 5 6 6 7 4 9 12 15 11 12 13 10 10 8
16 16 15 11 7 4 5 3 11 15 12 11 11 10 12 12 13 13 12 12 12 11 11 10 10 9 8 7 5 3 2 1 1 4 5 4 3 4 4 3 3 6 6 8 8 7 11 11 11
14 13 12 9 5 4 1 5 12 15 12 13 14 15 15 15 14 14 14 14 14 13 12 11 10 9 7 5 5 6 5 5 5 2 2 3 3 4 5 4 4 5 5 7 8 8 9 10 9
11 10 9 7 4 3 4 9 11 11 10 11 12 13 13 14 14 13 14 13 13 12 11 9 8 7 6 4 4 3 5 4 4 3 4 3 3 4 4 5 5 5 6 6 6 9 7 7 6
12 12 11 8 7 7 9 9 10 9 9 10 10 10 11 12 12 12 11 11 11 10 9 8 6 7 6 5 6 4 4 5 4 3 4 4 4 4 4 4 5 6 6 8 6 8 6 6 7
12 15 12 2 1 5 9 8 10 9 9 9 8 8 8 9 9 9 9 9 9 8 8 7 8 8 6 5 5 4 4 4 4 3 4 5 5 4 4 4 5 5 5 5 6 6 6 7 6
11 8 2 5 6 7 5 11 10 9 9 8 7 7 7 7 8 7 8 8 8 7 6 6 6 7 7 6 5 4 3 3 2 2 3 4 5 4 3 4 4 4 4 4 6 5 6 7 7
4 6 6 7 10 7 7 12 10 9 10 9 8 8 7 8 8 8 7 8 7 6 5 5 4 5 6 5 5 4 4 4 3 2 2 4 4 5 4 3 4 3 2 3 3 5 5 5 5
9 11 13 13 4 1 8 12 11 10 10 10 9 8 8 9 9 7 6 6 6 5 4 3 4 4 4 4 5 5 4 4 4 1 3 3 4 5 4 4 4 3 2 3 3 3 4 4 4
6 4 5 3 7 4 5 9 11 10 9 10 10 10 9 9 8 6 5 4 4 4 3 3 5 6 6 5 5 5 5 5 4 2 1 2 3 4 4 4 4 4 3 3 3 2 2 3 3
8 8 4 2 5 10 7 6 7 7 8 9 10 9 9 8 7 5 3 2 1 2 2 3 3 3 5 6 6 7 6 5 5 5 3 2 3 4 3 3 3 4 4 3 3 2 2 3 3
6 5 5 4 4 4 1 2 6 7 7 8 9 8 7 5 5 4 1 1 3 3 3 2 2 3 4 6 7 9 8 7 8 6 5 6 5 5 3 2 3 4 4 3 3 2 2 2 3
4 4 2 5 4 4 9 5 3 9 9 9 8 8 6 5 2 1 1 2 3 4 4 3 4 4 4 5 7 8 8 7 7 8 9 8 7 6 4 2 1 2 3 3 4 4 3 2 3
7 4 1 9 9 6 2 1 5 7 9 10 9 7 5 3 2 2 2 3 3 5 4 4 4 5 5 6 6 7 8 8 9 9 9 8 6 5 4 2 0 1 2 3 4 4 5 3 4
11 10 3 4 2 6 7 6 5 6 7 7 7 6 4 3 3 2 3 4 5 6 5 4 5 5 5 5 6 6 7 8 10 9 7 7 7 6 6 5 2 2 2 3 3 4 4 4 5
8 9 7 8 4 4 8 6 4 6 6 4 3 2 0 2 3 5 6 6 6 7 6 6 5 5 5 5 6 6 7 7 7 8 9 9 8 7 7 7 5 5 4 5 4 3 4 4 4
8 9 12 10 8 2 7 8 6 6 6 3 2 2 3 5 6 7 8 9 8 7 6 6 5 5 5 6 6 6 5 6 7 7 9 8 7 9 9 8 8 7 7 6 5 4 5 4 4
8 9 8 8 8 8 6 8 6 5 3 5 5 5 6 7 8 10 10 10 9 8 6 6 5 5 6 7 6 8 6 6 6 8 8 8 8 8 9 9 8 8 8 7 6 6 6 6 5
8 10 9 8 9 8 6 8 8 5 4 5 7 8 8 9 10 10 9 9 9 9 8 7 7 6 6 6 6 6 7 7 8 7 8 7 7 8 9 9 9 9 9 9 8 8 7 7 7
3 6 7 7 8 7 6 8 4 3 5 6 7 7 8 9 9 10 10 9 9 10 10 9 8 8 7 7 6 7 7 8 8 9 8 7 8 8 9 9 9 10 11 9 9 9 10 9 9
Wind_Direction
181 194 206 223 239 238 295 19 49 36 45 45 47 48 59 50 50 76 86 99 111 121 131 135 133 131 129 128 130 137 146 151 152 151 150 150 152 153 153 153 152 151 149 147 144 140 135 130 127
196 204 216 238 242 236 6 31 47 48 55 45 61 64 71 62 70 90 95 111 118 126 137 136 136 134 133 131 131 136 144 151 152 152 154 155 157 159 162 163 165 166 164 159 155 149 144 140 138
237 237 248 248 254 280 40 45 36 55 78 61 74 66 58 65 74 93 116 124 122 127 130 131 141 138 137 135 134 137 141 147 153 154 156 159 162 166 170 173 175 179 180 173 166 161 156 154 152
238 232 236 252 273 29 53 45 21 52 68 51 81 81 73 61 85 109 131 125 119 128 128 135 140 140 140 140 140 141 143 146 153 158 163 167 170 174 179 182 184 187 188 186 180 176 171 167 165
244 256 249 255 268 40 72 61 29 45 65 67 86 94 91 88 101 124 133 122 133 133 127 137 141 141 143 145 148 151 153 156 160 165 171 177 181 186 189 190 193 196 197 197 193 189 182 178 177
254 254 266 278 254 82 59 51 31 46 51 54 93 105 103 116 122 130 128 136 134 127 127 135 141 144 148 153 158 162 166 169 173 178 183 189 195 200 201 202 202 204 204 203 200 198 190 187 186
258 277 285 289 286 145 72 24 28 54 57 30 67 104 117 125 125 127 132 134 130 124 127 142 147 152 158 164 169 174 178 182 188 193 197 202 207 211 213 214 212 211 210 207 205 203 198 193 192
264 283 284 281 281 9 83 48 47 46 65 46 44 93 122 126 129 124 132 124 116 123 133 147 155 154 167 173 181 185 191 196 200 206 210 214 217 219 220 219 215 216 214 211 209 208 202 198 197
263 268 271 278 314 13 48 32 37 52 65 54 45 61 105 121 120 130 128 118 110 118 132 149 148 154 177 181 176 184 198 205 208 213 219 221 224 221 217 223 216 213 214 213 213 211 208 203 203
240 256 265 292 355 343 360 6 347 36 66 54 50 53 93 110 120 135 132 129 130 115 105 94 109 127 155 167 150 184 199 197 208 217 208 211 227 239 236 212 211 212 213 214 215 216 213 210 212
240 254 275 300 327 329 312 18 43 42 55 35 33 57 91 95 93 92 97 111 110 93 67 66 64 63 42 41 106 197 212 189 203 226 225 219 229 242 253 232 202 209 213 216 215 214 216 216 215
246 258 277 293 310 313 300 22 69 58 51 33 35 40 58 60 56 57 60 60 72 70 60 51 49 46 33 20 355 331 343 330 243 213 224 230 237 250 264 269 229 206 210 212 218 208 210 218 217
242 252 268 277 272 260 187 86 82 67 52 44 43 46 51 59 62 58 58 58 57 54 49 45 44 42 30 17 348 347 333 323 318 326 259 255 258 256 258 266 268 256 236 217 220 222 214 213 219
270 257 247 247 243 197 148 101 87 77 71 61 50 49 52 56 58 57 54 55 55 51 43 37 40 38 25 4 343 315 307 314 314 322 328 314 286 278 278 273 269 264 261 256 235 231 229 219 218
258 261 242 217 198 171 142 99 93 96 93 85 73 63 58 57 59 58 57 58 57 54 42 23 39 34 20 2 346 334 329 326 329 336 325 318 307 304 297 283 270 261 259 260 255 247 241 233 225
243 241 233 201 276 192 201 120 113 121 112 101 95 86 77 69 69 69 68 66 63 58 52 36 31 25 13 8 346 334 333 335 336 335 332 337 330 318 308 291 278 271 260 254 251 246 243 238 233
245 266 284 22 307 244 202 122 128 133 124 117 111 104 99 94 87 83 84 79 74 67 55 50 40 24 1 358 348 341 337 334 324 334 352 344 333 323 307 297 290 289 275 257 256 248 235 233 234
16 14 8 281 250 228 131 123 138 143 135 132 132 129 124 114 106 104 100 98 90 80 63 44 41 31 354 358 341 344 341 345 330 356 19 354 336 329 316 297 287 282 280 275 261 261 249 233 230
195 189 193 223 249 209 144 144 150 148 142 137 137 133 126 117 116 116 115 108 102 93 77 57 32 27 354 3 341 331 329 331 311 329 35 8 349 338 326 322 307 283 266 261 254 243 251 242 229
260 248 154 84 341 319 173 154 144 149 145 143 142 139 134 128 128 128 130 119 105 91 56 46 33 15 358 357 319 301 318 313 301 339 1 10 351 334 332 334 320 313 290 284 285 264 256 258 230
334 360 12 197 239 261 223 147 117 127 140 146 140 139 138 141 137 139 133 110 65 57 30 34 32 11 4 345 325 335 327 314 319 334 319 355 335 318 323 323 322 319 307 285 273 257 250 263 271
330 316 296 263 211 254 240 176 171 173 177 161 151 149 144 143 149 150 171 11 340 356 3 27 33 21 2 346 337 331 320 319 325 326 326 329 312 296 291 307 333 330 318 320 302 278 252 242 269
249 231 337 357 347 346 26 360 229 183 182 174 168 158 149 162 173 167 287 308 328 341 341 358 27 22 6 346 329 324 321 326 323 324 315 310 297 280 269 263 317 331 323 340 339 334 307 259 250
306 259 65 39 29 1 344 304 253 214 187 171 164 157 162 176 214 228 281 326 346 338 340 357 12 7 355 339 328 321 322 320 313 303 295 297 297 294 290 270 224 301 327 338 328 323 314 307 289
319 300 321 14 73 243 214 206 229 195 161 153 152 157 165 196 240 285 328 343 346 333 339 350 357 353 345 329 317 318 315 308 296 296 310 320 317 314 316 322 295 277 277 288 291 294 295 302 301
290 302 317 314 287 183 176 197 163 126 112 116 118 112 280 313 356 352 346 351 345 343 350 352 353 339 329 320 314 310 298 300 311 326 327 312 300 298 305 311 306 287 265 261 261 273 275 271 278
329 340 334 316 320 99 153 138 126 137 146 125 44 8 351 5 358 350 354 353 351 354 354 346 341 334 328 320 308 292 303 322 318 312 302 302 308 309 314 320 309 299 286 264 250 249 254 261 257
343 341 351 334 345 346 97 111 126 141 56 23 359 359 8 4 355 357 353 346 349 345 343 343 343 337 326 317 316 321 327 311 304 305 302 299 298 298 299 295 294 291 286 276 255 247 242 239 240
355 9 2 343 0 341 2 82 96 70 35 6 359 8 7 1 355 349 344 346 344 339 338 341 338 330 322 322 323 317 310 310 305 298 296 301 305 306 302 299 295 291 285 277 266 255 246 238 237
5 16 4 354 345 324 336 99 87 66 49 29 8 6 8 1 349 343 341 343 340 336 335 332 331 324 325 327 319 313 312 309 306 305 303 299 295 293 294 292 290 287 284 279 273 263 255 241 233